Погода в Староцурухайтуе

Россия / Забайкальский край     50°11′52″N   119°19′36″E
темп.,
°C
ветер,
м/с
пор.,
м/с
влажн.,
%
обл.,
%
осадки,
мм/ч
давл.,
гПа
погр.,
м
26 февраля, пт
пт2600:00−19ссв1110092 0.1 103020
03:00−20ссв2210094 0.1 103020
06:00−20всв2299100 0.0 103125
09:00−18всв2494100 0.0 1030160
12:00−14в3487100 0.0 1027276
15:00−10в6983100 0.0 1022507
18:00−10в3584100 0.0 101873
21:00−11вюв5984100 0.0 1016183
27 февраля, сб
сб2700:00−10юв41085100 0.0 1012221
03:00−9юв51184100 0.0 1008264
06:00−3ююв61197100 2.0 1005385
09:00−9сз81294100 6.4 1006325
12:00−8сз6979100 0.3 1011853
15:00−8зсз5876100 0.3 10161102
18:00−12з51180100 0.0 1019292
21:00−16з6138160 0.0 1024253
28 февраля, вс
вс2800:00−18зсз511810 0.0 1028198
03:00−20зсз45820 0.0 103165
06:00−23з46760 0.0 103582
09:00−24з23770 0.0 103737
12:00−19зсз36720 0.0 1037380
15:00−18з57760 0.0 1037519
18:00−20з510800 0.0 1038199
21:00−23з47820 0.0 104298
1 марта, пн
пн100:00−25з33800 0.0 104322
03:00−27зюз12840 0.0 104319
06:00−29ююз22860 0.0 104219
09:00−28ю22870 0.0 104219
12:00−21ю34860 0.0 1039292
15:00−18ююз469033 0.0 1036484
18:00−21ю339596 0.0 103424
21:00−24ююв239382 0.0 103522
2 марта, вт
вт200:00−24юв2292100 0.0 103320
03:00−26ююв229393 0.0 103220
06:00−28ююв229677 0.0 103019
09:00−27юв229987 0.0 102920
12:00−21ююв3494100 0.0 1024320
15:00−18ююв3591100 0.1 1020484
18:00−18ююв2294100 0.0 101921
21:00−22юв1110097 0.0 101920